Flag for Germany Weather past 2 weeks in Greifswald, Mecklenburg-Western Pomerania, Germany

Now
51 °F

Clear.


Feels Like: 49 °F
Forecast: 52 / 72 °F
Wind: 5 mph from Southwest

Location: Greifswald

Current Time: Aug 21, 2014 at 4:30:03 AM

Latest Report: Aug 21, 2014 at 4:00 AM


Visibility: 19 mi

Pressure: 29.93 "Hg

Humidity: 87%

Dew point: 47 °F

Location of GreifswaldLocation

Historic Weather in Greifswald — Graph

°F

Greifswald temperature yesterday

Maximum temperature yesterday: 62 °F (at 3:00 PM)
Minimum temperature yesterday: 53 °F (at 6:00 AM)
Average temperature yesterday: 56 °F

Past Weeks' High & Low Weather Summary

 TemperatureHumidityPressure
High80 °F (Aug 9, 1:00 PM)99% (Aug 7, 3:00 AM)30.04 "Hg (Aug 7, 3:00 AM)
Low51 °F (Aug 21, 3:00 AM)37% (Aug 7, 1:00 PM)29.47 "Hg (Aug 18, 3:00 PM)
Average63 °F76%29.82 "Hg
* Reported Aug 6 3:00 AM — Aug 21 3:00 AM, Greifswald, Weather by CustomWeather, © 2014

Note: Actual official high and low records may vary slightly from our data, if they occured in-between our weather recording intervals... More about our weather records

Advertising

Greifswald weather history for previous 24 hours

 ConditionsComfort  
Time TempWeatherWind HumidityBarometerVisibility
3:00 AM
Aug 21
51 °FClear.3 mph86%29.94 "Hg22 mi
2:00 AM52 °FClear.3 mph86%29.93 "Hg22 mi
1:00 AM53 °FPassing clouds.3 mph85%29.93 "Hg22 mi
12:00 AM53 °FClear.5 mph83%29.92 "Hg22 mi
10:00 PM
Aug 20
55 °FPassing clouds.3 mph75%29.92 "Hg25 mi
9:00 PM56 °FPassing clouds.3 mph78%29.91 "Hg22 mi
8:00 PM58 °FPartly sunny.3 mph75%29.89 "Hg25 mi
7:00 PM60 °FPartly sunny.3 mph70%29.89 "Hg22 mi
6:00 PM56 °FSprinkles. Overcast.10 mph74%29.90 "Hg25 mi
4:00 PM61 °FPassing clouds.8 mph64%29.87 "Hg25 mi
3:00 PM62 °FOvercast.7 mph63%29.85 "Hg28 mi
2:00 PM60 °FSprinkles. Overcast.7 mph68%29.85 "Hg16 mi
1:00 PM60 °FOvercast.7 mph65%29.84 "Hg19 mi
12:00 PM59 °FScattered clouds.7 mph67%29.83 "Hg19 mi
11:00 AM58 °FOvercast.7 mph71%29.82 "Hg19 mi
10:00 AM56 °FOvercast.6 mph74%29.80 "Hg19 mi
9:00 AM55 °FOvercast.6 mph78%29.79 "Hg22 mi
8:00 AM54 °FOvercast.6 mph81%29.77 "Hg25 mi
7:00 AM53 °FOvercast.5 mph81%29.76 "Hg28 mi
6:00 AM53 °FOvercast.6 mph81%29.75 "Hg19 mi
4:00 AM53 °FOvercast.6 mph84%29.74 "Hg16 mi
Weather by CustomWeather, © 2014

See weather overviewHow to use our weather pages